[[{"header":{"parameterUnit":"m.s-1","parameterCategory":1,"la1":30.2991,"la2":30.254,"lo1":-89.0895,"lo2":-89.0444,"dy":0.0017,"dx":0.0017,"nx":28,"ny":28,"refTime":"2024-07-22T21:00:00:Z","depth":0,"parameterNumber":2,"parameterNumberName":"U-component_of_WINDS"},"data":[0,0,0,0,0,0,0,0,0,0,0,0,0,0,0,0,0,0,0,0,0,0,0,0,0,0,0,0,0,0,0,0,0,0,0,0,0,0,0,0,0,0,0,0,0,0,0,0,0,0,0,0,0,0,0,0,0,0,-1.8154,-1.8153,0,-1.8063,-1.8062,-1.8061,-1.7956,-1.7954,-1.7953,-1.7951,-1.7861,-1.786,-1.7859,0,0,0,0,0,0,0,0,0,0,0,0,0,-1.8239,-1.8238,-1.8154,-1.8153,-1.8152,-1.8063,-1.8062,-1.8061,-1.7956,-1.7954,-1.7952,-1.795,-1.7861,-1.786,-1.7859,0,0,0,0,0,0,0,0,0,0,0,0,0,-1.8181,-1.8238,-1.8154,-1.8089,-1.8082,-1.8064,-1.8062,-1.8061,-1.7956,-1.7954,-1.7952,-1.7949,-1.7862,-1.786,-1.7859,-1.7899,0,0,-1.7855,-1.7854,0,0,0,0,0,0,0,0,-1.8185,-1.8178,-1.8099,-1.8093,-1.8085,-1.8018,-1.8059,-1.8007,-1.7957,-1.8004,-1.7951,-1.7948,-1.7916,-1.791,-1.7898,-1.7895,-1.7891,-1.7855,-1.7854,-1.7853,-1.7853,0,0,0,0,0,0,0,-1.8189,-1.8181,-1.8118,-1.8098,-1.809,-1.8065,-1.8054,-1.8049,-1.7975,-1.8,-1.7992,-1.7983,-1.7911,-1.79,-1.7895,-1.7889,-1.7855,-1.7854,-1.7853,-1.7852,-1.7916,-1.7918,0,0,0,0,0,0,-1.8202,-1.8185,-1.8121,-1.8115,-1.813,-1.8065,-1.8053,-1.8042,-1.7974,-1.7961,-1.7985,-1.7978,-1.7903,-1.7897,-1.7892,-1.7934,-1.7853,-1.7852,-1.7851,-1.7914,-1.7917,-1.7919,0,0,0,0,0,0,-1.8204,-1.8197,-1.8125,-1.8148,-1.8137,-1.8066,-1.8055,-1.8042,-1.803,-1.7963,-1.7949,-1.7986,-1.7901,-1.7893,-1.7898,-1.793,-1.7852,-1.785,-1.7911,-1.7914,-1.7918,-1.802,0,0,0,0,0,0,-1.8207,-1.8199,-1.8212,-1.8149,-1.8136,-1.8132,-1.8057,-1.8042,-1.8027,-1.8018,-1.796,-1.7949,-1.7898,-1.7901,-1.7897,-1.7926,-1.7849,-1.7907,-1.7912,-1.7917,-1.8014,-1.8027,-1.8038,0,0,0,0,0,-1.8211,-1.8245,-1.8214,-1.8206,-1.8151,-1.8134,-1.8126,-1.8067,-1.803,-1.8044,-1.8001,-1.7951,-1.7927,-1.7902,-1.7897,-1.7927,-1.7905,-1.7911,-1.7916,-1.8008,-1.8024,-1.8038,0,0,0,0,0,0,-1.8314,-1.8235,-1.82,-1.8214,-1.8182,-1.8116,-1.8131,-1.8086,-1.8063,-1.8055,-1.7983,-1.7971,-1.7985,-1.7956,-1.7929,-1.7962,-1.7909,-1.7914,-1.7981,-1.7995,-1.8008,-1.8014,-1.7848,0,0,0,0,0,-1.8338,-1.833,-1.8262,-1.8281,-1.8267,-1.8202,-1.8192,-1.8149,-1.8113,-1.8099,-1.8056,-1.8023,-1.8009,-1.8,-1.7983,-1.8009,-1.7996,-1.8027,-1.804,-1.805,-1.8055,-1.8069,-1.8082,-1.7938,-1.7938,-1.7938,0,0,-1.8389,-1.8345,-1.8344,-1.8301,-1.827,-1.8264,-1.8191,-1.8187,-1.8182,-1.8098,-1.81,-1.8068,-1.8027,-1.8043,-1.8048,-1.8019,-1.8093,-1.8058,-1.8066,-1.8066,-1.8076,-1.8089,-1.8102,-1.7942,-1.7941,-1.794,0,0,-1.8477,-1.8443,-1.8456,-1.8427,-1.8382,-1.8339,-1.8342,-1.8284,-1.8259,-1.826,-1.8197,-1.8191,-1.8166,-1.814,-1.8124,-1.8205,-1.8158,-1.8201,-1.8266,-1.8279,-1.8291,-1.83,-1.833,-1.8342,-1.8206,-1.8207,-1.8207,0,-1.8546,-1.8533,-1.8468,-1.8469,-1.8452,-1.8376,-1.8389,-1.8365,-1.8317,-1.8308,-1.8277,-1.8246,-1.8213,-1.8222,-1.8242,-1.8231,-1.8234,-1.8207,-1.8294,-1.8303,-1.8311,-1.8339,-1.835,-1.8212,-1.8212,-1.8211,-1.8211,0,-1.862,-1.8612,-1.8628,-1.8583,-1.8569,-1.8576,-1.8514,-1.8508,-1.8467,-1.8428,-1.843,-1.8388,-1.8362,-1.8361,-1.8321,-1.8365,-1.8349,-1.8307,-1.8252,-1.8332,-1.8357,-1.8367,-1.822,-1.8218,-1.8217,-1.8215,0,0,-1.8769,-1.869,-1.8697,-1.8676,-1.8622,-1.8615,-1.862,-1.8593,-1.8589,-1.856,-1.8562,-1.8544,-1.8506,-1.8487,-1.8444,-1.8456,-1.8524,-1.8412,-1.841,-1.8435,-1.8572,-1.8604,-1.8617,-1.8493,-1.8495,-1.8496,-1.8575,0,-1.8848,-1.885,-1.8793,-1.8811,-1.8804,-1.8733,-1.8737,-1.8705,-1.8669,-1.8659,-1.862,-1.8608,-1.8558,-1.8546,-1.8555,-1.8514,-1.8551,-1.8508,-1.8496,-1.8496,-1.8508,-1.863,-1.8663,-1.874,-1.8585,-1.8586,-1.8587,0,-1.8939,-1.8915,-1.8933,-1.8879,-1.8873,-1.8878,-1.885,-1.8841,-1.8804,-1.8777,-1.8758,-1.8708,-1.8711,-1.8659,-1.8662,-1.8634,-1.8626,-1.8605,-1.8607,-1.8603,-1.8547,-1.863,-1.8763,-1.8775,-1.8602,-1.8601,-1.86,0,-1.9048,-1.9019,-1.9026,-1.901,-1.8948,-1.8953,-1.8927,-1.8887,-1.8876,-1.8852,-1.8844,-1.8821,-1.8809,-1.8793,-1.8739,-1.8706,-1.8749,-1.8692,-1.8728,-1.8729,-1.874,-1.874,-1.8873,-1.8735,-1.8735,-1.8734,-1.8734,0,-1.9141,-1.9155,-1.9074,-1.9078,-1.9092,-1.9028,-1.9044,-1.9011,-1.8977,-1.8975,-1.8912,-1.8912,-1.8841,-1.8833,-1.8792,-1.8801,-1.8796,-1.8775,-1.8764,-1.8781,-1.8784,-1.8775,-1.8768,-1.8737,-1.8737,-1.8736,-1.8736,0,-1.9264,-1.921,-1.9213,-1.9154,-1.9139,-1.9152,-1.9102,-1.9104,-1.9065,-1.9064,-1.906,-1.8999,-1.8987,-1.8932,-1.8907,-1.8879,-1.8903,-1.8881,-1.8915,-1.8908,-1.8947,-1.8944,-1.9079,-1.9094,-1.8947,-1.8948,-1.8949,0,-1.9327,-1.9336,-1.9278,-1.9272,-1.9249,-1.924,-1.9228,-1.9166,-1.9156,-1.9115,-1.9123,-1.9106,-1.9088,-1.9073,-1.9027,-1.9008,-1.8985,-1.9034,-1.8982,-1.8999,-1.8986,-1.8987,-1.8988,-1.9045,-1.9047,-1.9049,-1.905,0,-1.9446,-1.9419,-1.9403,-1.9379,-1.9367,-1.9345,-1.9319,-1.9318,-1.9249,-1.9242,-1.9228,-1.9215,-1.919,-1.9174,-1.9147,-1.9122,-1.9075,-1.9067,-1.9074,-1.9091,-1.9111,-1.9101,-1.8946,-1.9064,-1.9062,-1.9061,-1.9061,-1.906,-1.954,-1.9546,-1.9506,-1.9491,-1.9466,-1.9444,-1.9444,-1.9405,-1.9392,-1.9366,-1.9331,-1.9323,-1.9287,-1.9247,-1.9226,-1.9219,-1.9192,-1.9203,-1.9205,-1.9209,-1.9218,-1.9113,-1.9214,-1.9214,-1.9213,-1.9213,-1.9212,0,-1.9656,-1.9627,-1.9615,-1.9581,-1.957,-1.9527,-1.9497,-1.9491,-1.9484,-1.9455,-1.9439,-1.9425,-1.941,-1.9363,-1.9344,-1.9348,-1.9326,-1.9345,-1.9344,-1.9339,-1.9242,-1.9238,-1.9363,-1.9363,-1.9363,-1.9363,-1.9363,-1.9363,-1.9715,-1.9721,-1.969,-1.9685,-1.9656,-1.9647,-1.9634,-1.9614,-1.959,-1.9577,-1.9564,-1.9533,-1.9498,-1.9475,-1.946,-1.9447,-1.9443,-1.9469,-1.945,-1.936,-1.9346,-1.9332,-1.9328,-1.9469,-1.9469,-1.9546,-1.9547,-1.9548]},{"header":{"parameterUnit":"m.s-1","parameterCategory":1,"la1":30.2991,"la2":30.254,"lo1":-89.0895,"lo2":-89.0444,"dy":0.0017,"dx":0.0017,"nx":28,"ny":28,"refTime":"2024-07-22T21:00:00:Z","depth":0,"parameterNumber":3,"parameterNumberName":"V-component_of_WINDS"},"data":[0,0,0,0,0,0,0,0,0,0,0,0,0,0,0,0,0,0,0,0,0,0,0,0,0,0,0,0,0,0,0,0,0,0,0,0,0,0,0,0,0,0,0,0,0,0,0,0,0,0,0,0,0,0,0,0,0,0,0.146,0.146,0,0.1458,0.1458,0.1458,0.1491,0.1492,0.1493,0.1494,0.149,0.1489,0.1489,0,0,0,0,0,0,0,0,0,0,0,0,0,0.1493,0.1492,0.146,0.146,0.146,0.1458,0.1458,0.1458,0.1491,0.1492,0.1493,0.1494,0.1491,0.149,0.1488,0,0,0,0,0,0,0,0,0,0,0,0,0,0.1484,0.1492,0.146,0.1476,0.1478,0.1458,0.1458,0.1458,0.1491,0.1492,0.1493,0.1495,0.1491,0.149,0.1488,0.1452,0,0,0.1484,0.1483,0,0,0,0,0,0,0,0,0.1484,0.1482,0.1474,0.1475,0.1477,0.1476,0.1468,0.1456,0.149,0.1486,0.1494,0.1495,0.1484,0.1484,0.148,0.1452,0.1452,0.1484,0.1483,0.1482,0.1482,0,0,0,0,0,0,0,0.1485,0.1483,0.1459,0.1474,0.1476,0.1484,0.1484,0.1466,0.1477,0.1486,0.1489,0.1488,0.1486,0.1481,0.148,0.1452,0.1484,0.1483,0.1482,0.1481,0.1394,0.1393,0,0,0,0,0,0,0.1483,0.1483,0.1459,0.1459,0.1484,0.1482,0.1482,0.1475,0.1478,0.148,0.1487,0.149,0.1483,0.1482,0.148,0.1438,0.1482,0.1481,0.148,0.1396,0.1394,0.1392,0,0,0,0,0,0,0.1484,0.1481,0.1459,0.1472,0.147,0.148,0.1472,0.1474,0.147,0.1478,0.148,0.1481,0.1484,0.1482,0.1459,0.1438,0.1481,0.1479,0.1397,0.1395,0.1393,0.1353,0,0,0,0,0,0,0.1485,0.1481,0.1467,0.1471,0.1469,0.1438,0.147,0.1473,0.1468,0.1471,0.1473,0.1475,0.1485,0.1461,0.1458,0.1437,0.1478,0.1399,0.1396,0.1394,0.1357,0.135,0.1345,0,0,0,0,0,0.1486,0.1456,0.1466,0.1463,0.1452,0.1437,0.1436,0.1449,0.1466,0.1452,0.1458,0.1474,0.1442,0.1458,0.1455,0.1434,0.1401,0.1397,0.1394,0.1359,0.1351,0.1345,0,0,0,0,0,0,0.1449,0.1457,0.1468,0.1439,0.1437,0.1443,0.1426,0.144,0.1433,0.1436,0.1453,0.1453,0.1427,0.1428,0.1447,0.1399,0.1424,0.142,0.1399,0.1391,0.1386,0.1385,0.1477,0,0,0,0,0,0.1438,0.1425,0.1432,0.1406,0.1404,0.1415,0.1409,0.1419,0.1418,0.1417,0.142,0.1418,0.1407,0.14,0.139,0.1357,0.1358,0.1341,0.1335,0.133,0.1326,0.1309,0.1301,0.1382,0.1382,0.1382,0,0,0.1414,0.1417,0.1407,0.1399,0.1398,0.1384,0.1414,0.1398,0.1388,0.1414,0.1392,0.1395,0.1394,0.1365,0.1353,0.1366,0.1304,0.1326,0.1322,0.1321,0.1304,0.1297,0.129,0.1379,0.138,0.138,0,0,0.1363,0.1364,0.1342,0.1341,0.134,0.1348,0.1343,0.1346,0.1349,0.1327,0.1347,0.1335,0.1316,0.1314,0.131,0.1259,0.1274,0.1256,0.1224,0.1207,0.12,0.1195,0.1176,0.1169,0.1252,0.1252,0.1252,0,0.1333,0.1313,0.1329,0.1311,0.1307,0.1331,0.1308,0.1307,0.1303,0.1299,0.1313,0.129,0.1291,0.1262,0.125,0.1247,0.1241,0.1255,0.12,0.1195,0.119,0.1172,0.1165,0.125,0.125,0.125,0.125,0,0.1277,0.1262,0.1245,0.124,0.1234,0.1214,0.1226,0.1218,0.1229,0.1235,0.1213,0.1215,0.1206,0.12,0.1211,0.1173,0.1181,0.1197,0.1223,0.118,0.1163,0.1156,0.1246,0.1247,0.1248,0.1248,0,0,0.1202,0.1207,0.12,0.1198,0.1199,0.1188,0.117,0.1162,0.1154,0.115,0.1135,0.1118,0.1134,0.113,0.1141,0.1126,0.1085,0.1144,0.1145,0.1133,0.1043,0.1029,0.1021,0.1095,0.1094,0.1093,0.1042,0,0.1152,0.112,0.1134,0.1101,0.1087,0.111,0.1094,0.1093,0.1098,0.1088,0.1094,0.1081,0.1103,0.1101,0.1087,0.1092,0.1067,0.1097,0.108,0.1079,0.1079,0.1013,0.0999,0.0951,0.1036,0.1035,0.1034,0,0.1089,0.1083,0.1049,0.1052,0.1047,0.1032,0.1026,0.1016,0.1015,0.102,0.1015,0.103,0.1012,0.1037,0.1012,0.1032,0.1027,0.1028,0.1027,0.1025,0.1053,0.1008,0.0936,0.0928,0.1024,0.1025,0.1026,0,0.1037,0.1021,0.0998,0.0996,0.1,0.0988,0.0989,0.099,0.0984,0.0979,0.0975,0.0967,0.0963,0.0956,0.0968,0.0986,0.0941,0.0968,0.0944,0.0944,0.0933,0.0933,0.0857,0.093,0.093,0.0931,0.0931,0,0.0979,0.0957,0.0975,0.096,0.0936,0.0952,0.0928,0.0931,0.0932,0.0919,0.0938,0.0926,0.0942,0.0931,0.094,0.0918,0.0916,0.0919,0.0921,0.0916,0.0916,0.0912,0.0916,0.0929,0.0929,0.0929,0.093,0,0.0916,0.0927,0.0904,0.091,0.0911,0.0892,0.0897,0.0884,0.0891,0.0874,0.0871,0.0882,0.087,0.0881,0.087,0.0876,0.0845,0.0853,0.0846,0.0847,0.0822,0.0824,0.0741,0.0731,0.0811,0.081,0.081,0,0.0878,0.0862,0.0866,0.0859,0.0858,0.0846,0.0841,0.0856,0.0849,0.0847,0.0834,0.0824,0.0816,0.0796,0.0802,0.0794,0.0801,0.0772,0.0799,0.0795,0.0799,0.08,0.0798,0.0766,0.0765,0.0765,0.0764,0,0.081,0.0816,0.0807,0.08,0.0792,0.0787,0.0784,0.0777,0.0792,0.0784,0.0772,0.0766,0.0754,0.0743,0.0737,0.0738,0.0753,0.0756,0.0749,0.0744,0.074,0.0741,0.083,0.0757,0.0758,0.0758,0.0759,0.0759,0.0758,0.0744,0.0744,0.0734,0.0733,0.0729,0.0717,0.0723,0.0713,0.0705,0.0715,0.07,0.07,0.0692,0.0691,0.068,0.0692,0.0683,0.0681,0.0678,0.0674,0.0742,0.0679,0.0679,0.0679,0.0679,0.068,0,0.0689,0.0691,0.0681,0.0675,0.0667,0.0683,0.068,0.0672,0.0658,0.0657,0.0649,0.0635,0.0625,0.0631,0.0622,0.0612,0.0619,0.0609,0.0609,0.0609,0.0664,0.067,0.0604,0.0604,0.0604,0.0604,0.0604,0.0604,0.0652,0.063,0.0636,0.0614,0.0616,0.0601,0.0598,0.0595,0.0594,0.0577,0.0569,0.0573,0.0575,0.0566,0.0558,0.056,0.0555,0.0543,0.0547,0.0598,0.0605,0.0613,0.0618,0.0542,0.0542,0.0493,0.0493,0.0492]}]]